| time (UTC) | temp F | wind direction | speed MPH | gust MPH | rain 1hr in | rain 24hr in | rain mn in | humidity % | barometer mb |
| 20260906225122 | 74 | 207 | 1.0 | 8.0 | 0.00 | 0.00 | 0.00 | 68 | 1013.4 |
| 20260906224124 | 74 | 122 | 1.0 | 7.0 | 0.00 | 0.00 | 0.00 | 70 | 1013.5 |
| 20260906223122 | 73 | 168 | 2.0 | 8.0 | 0.00 | 0.00 | 0.00 | 70 | 1013.7 |
| 20260906222122 | 72 | 210 | 2.0 | 7.0 | 0.00 | 0.00 | 0.00 | 72 | 1013.8 |
| 20260906221123 | 72 | 189 | 1.0 | 6.0 | 0.00 | 0.00 | 0.00 | 70 | 1013.7 |
| 20260906220122 | 73 | 201 | 2.0 | 11.0 | 0.00 | 0.00 | 0.00 | 68 | 1013.7 |
| 20260906215123 | 72 | 191 | 3.0 | 8.0 | 0.00 | 0.00 | 0.00 | 69 | 1013.8 |
| 20260906214123 | 74 | 174 | 1.0 | 5.0 | 0.00 | 0.00 | 0.00 | 68 | 1013.9 |
| 20260906213124 | 74 | 190 | 2.0 | 5.0 | 0.00 | 0.00 | 0.00 | 68 | 1013.9 |
| 20260906212123 | 73 | 198 | 2.0 | 8.0 | 0.00 | 0.00 | 0.00 | 67 | 1014.0 |
| 20260906211125 | 73 | 197 | 4.0 | 11.0 | 0.00 | 0.00 | 0.00 | 66 | 1014.2 |
| 20260906210126 | 74 | 183 | 2.0 | 9.0 | 0.00 | 0.00 | 0.00 | 64 | 1014.2 |
| 20260906205123 | 74 | 180 | 2.0 | 8.0 | 0.00 | 0.00 | 0.00 | 66 | 1014.2 |
| 20260906204123 | 74 | 175 | 2.0 | 8.0 | 0.00 | 0.00 | 0.00 | 65 | 1014.4 |
| 20260906203122 | 72 | 174 | 2.0 | 9.0 | 0.00 | 0.00 | 0.00 | 67 | 1014.4 |
| 20260906202125 | 71 | 205 | 4.0 | 12.0 | 0.00 | 0.00 | 0.00 | 68 | 1014.5 |
| 20260906201122 | 72 | 185 | 3.0 | 11.0 | 0.00 | 0.00 | 0.00 | 64 | 1014.6 |
| 20260906200122 | 72 | 191 | 3.0 | 9.0 | 0.00 | 0.00 | 0.00 | 67 | 1014.6 |
| 20260906195122 | 70 | 199 | 4.0 | 12.0 | 0.00 | 0.00 | 0.00 | 68 | 1014.7 |
| 20260906194122 | 71 | 182 | 3.0 | 13.0 | 0.00 | 0.00 | 0.00 | 68 | 1014.8 |
| 20260906193123 | 71 | 189 | 3.0 | 9.0 | 0.00 | 0.00 | 0.00 | 66 | 1014.8 |
| 20260906192122 | 72 | 175 | 2.0 | 8.0 | 0.00 | 0.00 | 0.00 | 67 | 1015.1 |
| 20260906191126 | 72 | 183 | 2.0 | 8.0 | 0.00 | 0.00 | 0.00 | 64 | 1015.1 |
| 20260906190122 | 72 | 198 | 3.0 | 10.0 | 0.00 | 0.00 | 0.00 | 66 | 1015.1 |
| 20260906185123 | 73 | 167 | 2.0 | 8.0 | 0.00 | 0.00 | 0.00 | 65 | 1015.2 |
| 20260906184122 | 71 | 192 | 3.0 | 11.0 | 0.00 | 0.00 | 0.00 | 66 | 1015.4 |
| 20260906183143 | 72 | 189 | 2.0 | 9.0 | 0.00 | 0.00 | 0.00 | 65 | 1015.4 |
| 20260906182123 | 71 | 194 | 2.0 | 8.0 | 0.00 | 0.00 | 0.00 | 64 | 1015.4 |
| 20260906181122 | 72 | 182 | 2.0 | 9.0 | 0.00 | 0.00 | 0.00 | 63 | 1015.5 |
| 20260906180126 | 73 | 172 | 2.0 | 6.0 | 0.00 | 0.00 | 0.00 | 63 | 1015.5 |
| 20260906175124 | 73 | 187 | 1.0 | 4.0 | 0.00 | 0.00 | 0.00 | 64 | 1015.6 |
| 20260906174125 | 71 | 169 | 1.0 | 6.0 | 0.00 | 0.00 | 0.00 | 66 | 1015.6 |
| 20260906173144 | 70 | 173 | 1.0 | 4.0 | 0.00 | 0.00 | 0.00 | 67 | 1015.7 |
| 20260906172124 | 71 | 196 | 1.0 | 6.0 | 0.00 | 0.00 | 0.00 | 67 | 1015.9 |
| 20260906171125 | 68 | 205 | 3.0 | 9.0 | 0.00 | 0.00 | 0.00 | 72 | 1015.9 |
| 20260906170144 | 66 | 190 | 2.0 | 9.0 | 0.00 | 0.00 | 0.00 | 73 | 1015.9 |
| 20260906165125 | 67 | 209 | 3.0 | 8.0 | 0.00 | 0.00 | 0.00 | 74 | 1016.1 |
| 20260906164124 | 67 | 195 | 3.0 | 9.0 | 0.00 | 0.00 | 0.00 | 73 | 1016.1 |
| 20260906163124 | 67 | 195 | 2.0 | 8.0 | 0.00 | 0.00 | 0.00 | 73 | 1016.0 |
| 20260906162123 | 68 | 191 | 1.0 | 6.0 | 0.00 | 0.00 | 0.00 | 71 | 1016.2 |
| 20260906161123 | 69 | 166 | 1.0 | 4.0 | 0.00 | 0.00 | 0.00 | 68 | 1016.2 |
| 20260906160126 | 70 | 180 | 0.0 | 3.0 | 0.00 | 0.00 | 0.00 | 67 | 1016.2 |
| 20260906155124 | 68 | 61 | 0.0 | 3.0 | 0.00 | 0.00 | 0.00 | 72 | 1016.1 |
| 20260906154125 | 72 | 55 | 1.0 | 3.0 | 0.00 | 0.00 | 0.00 | 64 | 1016.2 |
| 20260906153124 | 69 | 78 | 0.0 | 4.0 | 0.00 | 0.00 | 0.00 | 69 | 1016.2 |
| 20260906152123 | 67 | 49 | 0.0 | 3.0 | 0.00 | 0.00 | 0.00 | 73 | 1016.2 |
| 20260906151123 | 64 | 30 | 0.0 | 3.0 | 0.00 | 0.00 | 0.00 | 76 | 1016.2 |
| 20260906150124 | 63 | 50 | 0.0 | 3.0 | 0.00 | 0.00 | 0.00 | 78 | 1016.2 |
| 20260906145124 | 60 | 161 | 0.0 | 3.0 | 0.00 | 0.00 | 0.00 | 86 | 1016.2 |
| 20260906144123 | 58 | 23 | 0.0 | 0.0 | 0.00 | 0.00 | 0.00 | 90 | 1016.2 |
| 20260906143124 | 53 | 225 | 0.0 | 0.0 | 0.00 | 0.00 | 0.00 | 96 | 1016.2 |
| 20260906142124 | 51 | 23 | 0.0 | 0.0 | 0.00 | 0.00 | 0.00 | 99 | 1016.0 |
| 20260906141125 | 50 | 45 | 0.0 | 0.0 | 0.00 | 0.00 | 0.00 | 99 | 1016.0 |
| 20260906140145 | 50 | 90 | 0.0 | 0.0 | 0.00 | 0.00 | 0.00 | 99 | 1016.1 |
| 20260906135123 | 50 | 113 | 0.0 | 0.0 | 0.00 | 0.00 | 0.00 | 99 | 1016.1 |
| 20260906134147 | 50 | 203 | 0.0 | 0.0 | 0.00 | 0.00 | 0.00 | 99 | 1016.1 |
| 20260906133124 | 50 | 225 | 0.0 | 0.0 | 0.00 | 0.00 | 0.00 | 99 | 1016.1 |
| 20260906132125 | 50 | 180 | 0.0 | 0.0 | 0.00 | 0.00 | 0.00 | 99 | 1016.2 |
| 20260906131123 | 51 | 90 | 0.0 | 0.0 | 0.00 | 0.00 | 0.00 | 99 | 1016.1 |
| 20260906130126 | 51 | 113 | 0.0 | 0.0 | 0.00 | 0.00 | 0.00 | 99 | 1016.2 |
| 20260906125144 | 51 | 68 | 0.0 | 0.0 | 0.00 | 0.00 | 0.00 | 99 | 1016.2 |
| 20260906124124 | 51 | 113 | 0.0 | 0.0 | 0.00 | 0.00 | 0.00 | 99 | 1016.2 |
| 20260906123124 | 51 | 68 | 0.0 | 0.0 | 0.00 | 0.00 | 0.00 | 99 | 1016.2 |
| 20260906122123 | 51 | 158 | 0.0 | 0.0 | 0.00 | 0.00 | 0.00 | 99 | 1016.2 |
| 20260906121127 | 51 | 158 | 0.0 | 0.0 | 0.00 | 0.00 | 0.00 | 98 | 1016.2 |
| 20260906120124 | 51 | 203 | 0.0 | 0.0 | 0.00 | 0.00 | 0.00 | 98 | 1016.1 |
| 20260906115125 | 51 | 180 | 0.0 | 0.0 | 0.00 | 0.00 | 0.00 | 97 | 1016.1 |
| 20260906114124 | 52 | 23 | 0.0 | 0.0 | 0.00 | 0.00 | 0.00 | 97 | 1016.1 |
| 20260906113144 | 52 | 90 | 0.0 | 0.0 | 0.00 | 0.00 | 0.00 | 96 | 1016.1 |
| 20260906112123 | 51 | 225 | 0.0 | 0.0 | 0.00 | 0.00 | 0.00 | 96 | 1016.1 |
| 20260906111124 | 52 | 203 | 0.0 | 0.0 | 0.00 | 0.00 | 0.00 | 96 | 1016.0 |
| 20260906110146 | 52 | 225 | 0.0 | 0.0 | 0.00 | 0.00 | 0.00 | 95 | 1016.1 |
| 20260906105144 | 52 | 113 | 0.0 | 0.0 | 0.00 | 0.00 | 0.00 | 95 | 1016.1 |
| 20260906104146 | 52 | 41 | 0.0 | 3.0 | 0.00 | 0.00 | 0.00 | 95 | 1016.1 |
| 20260906103123 | 52 | 270 | 0.0 | 2.0 | 0.00 | 0.00 | 0.00 | 95 | 1016.2 |
| 20260906102123 | 52 | 180 | 0.0 | 2.0 | 0.00 | 0.00 | 0.00 | 95 | 1016.2 |
| 20260906101123 | 52 | 293 | 0.0 | 0.0 | 0.00 | 0.00 | 0.00 | 94 | 1016.4 |
| 20260906100124 | 52 | 68 | 0.0 | 0.0 | 0.00 | 0.00 | 0.00 | 95 | 1016.2 |
| 20260906095147 | 52 | 203 | 0.0 | 0.0 | 0.00 | 0.00 | 0.00 | 94 | 1016.2 |
| 20260906094123 | 52 | 90 | 0.0 | 0.0 | 0.00 | 0.00 | 0.00 | 93 | 1016.4 |
| 20260906093146 | 53 | 113 | 0.0 | 0.0 | 0.00 | 0.00 | 0.00 | 93 | 1016.4 |
| 20260906092123 | 53 | 113 | 0.0 | 0.0 | 0.00 | 0.00 | 0.00 | 92 | 1016.5 |
| 20260906091126 | 53 | 158 | 0.0 | 0.0 | 0.00 | 0.00 | 0.00 | 92 | 1016.6 |
| 20260906090123 | 53 | 225 | 0.0 | 0.0 | 0.00 | 0.00 | 0.00 | 92 | 1016.6 |
| 20260906085123 | 53 | 23 | 0.0 | 0.0 | 0.00 | 0.00 | 0.00 | 92 | 1016.6 |
| 20260906084124 | 54 | 360 | 0.0 | 0.0 | 0.00 | 0.00 | 0.00 | 92 | 1016.7 |
| 20260906083124 | 55 | 248 | 0.0 | 0.0 | 0.00 | 0.00 | 0.00 | 89 | 1016.6 |
| 20260906082126 | 55 | 225 | 0.0 | 3.0 | 0.00 | 0.00 | 0.00 | 89 | 1016.6 |
| 20260906081123 | 55 | 270 | 0.0 | 0.0 | 0.00 | 0.00 | 0.00 | 89 | 1016.5 |
| 20260906080125 | 56 | 23 | 0.0 | 0.0 | 0.00 | 0.00 | 0.00 | 87 | 1016.6 |
| 20260906075123 | 57 | 202 | 0.0 | 2.0 | 0.00 | 0.00 | 0.00 | 85 | 1016.6 |
| 20260906074124 | 58 | 176 | 0.0 | 3.0 | 0.00 | 0.00 | 0.00 | 83 | 1016.5 |
| 20260906073124 | 58 | 126 | 2.0 | 8.0 | 0.00 | 0.00 | 0.00 | 82 | 1016.7 |
| 20260906072123 | 57 | 160 | 0.0 | 3.0 | 0.00 | 0.00 | 0.00 | 86 | 1016.7 |
| 20260906071147 | 57 | 194 | 0.0 | 3.0 | 0.00 | 0.00 | 0.00 | 86 | 1016.8 |
| 20260906070124 | 57 | 51 | 0.0 | 3.0 | 0.00 | 0.00 | 0.00 | 85 | 1016.8 |
| 20260906065125 | 58 | 166 | 1.0 | 4.0 | 0.00 | 0.00 | 0.00 | 84 | 1016.8 |
| 20260906064123 | 58 | 92 | 1.0 | 5.0 | 0.00 | 0.00 | 0.00 | 85 | 1016.7 |
| 20260906063123 | 58 | 211 | 1.0 | 3.0 | 0.00 | 0.00 | 0.00 | 83 | 1016.6 |
| 20260906062123 | 58 | 172 | 1.0 | 4.0 | 0.00 | 0.00 | 0.00 | 85 | 1016.7 |
| 20260906061124 | 58 | 145 | 1.0 | 3.0 | 0.00 | 0.00 | 0.00 | 86 | 1016.6 |
| 20260906060125 | 57 | 156 | 0.0 | 4.0 | 0.00 | 0.00 | 0.00 | 89 | 1016.7 |
| 20260906055123 | 57 | 180 | 0.0 | 0.0 | 0.00 | 0.00 | 0.00 | 89 | 1016.7 |
| 20260906054147 | 58 | 199 | 1.0 | 4.0 | 0.00 | 0.00 | 0.00 | 87 | 1016.7 |
| 20260906053123 | 57 | 200 | 0.0 | 3.0 | 0.00 | 0.00 | 0.00 | 89 | 1016.6 |
| 20260906052123 | 58 | 225 | 0.0 | 0.0 | 0.00 | 0.00 | 0.00 | 87 | 1016.7 |
| 20260906051144 | 59 | 165 | 1.0 | 4.0 | 0.00 | 0.00 | 0.00 | 84 | 1016.7 |
| 20260906050123 | 60 | 176 | 2.0 | 7.0 | 0.00 | 0.00 | 0.00 | 81 | 1016.8 |
| 20260906045147 | 59 | 185 | 1.0 | 5.0 | 0.00 | 0.00 | 0.00 | 83 | 1016.8 |
| 20260906044123 | 59 | 156 | 1.0 | 4.0 | 0.00 | 0.00 | 0.00 | 83 | 1016.8 |
| 20260906043126 | 59 | 162 | 1.0 | 6.0 | 0.00 | 0.00 | 0.00 | 82 | 1016.9 |
| 20260906042123 | 59 | 141 | 2.0 | 8.0 | 0.00 | 0.00 | 0.00 | 83 | 1016.8 |
| 20260906041126 | 58 | 168 | 1.0 | 8.0 | 0.00 | 0.00 | 0.00 | 85 | 1016.8 |
| 20260906040123 | 57 | 184 | 1.0 | 3.0 | 0.00 | 0.00 | 0.00 | 90 | 1016.7 |
| 20260906035126 | 57 | 180 | 0.0 | 0.0 | 0.00 | 0.00 | 0.00 | 90 | 1016.7 |
| 20260906034125 | 57 | 240 | 0.0 | 2.0 | 0.00 | 0.00 | 0.00 | 89 | 1016.7 |
| 20260906033123 | 57 | 135 | 0.0 | 2.0 | 0.00 | 0.00 | 0.00 | 89 | 1016.6 |
| 20260906032147 | 58 | 135 | 0.0 | 0.0 | 0.00 | 0.00 | 0.00 | 89 | 1016.5 |
| 20260906031123 | 58 | 158 | 0.0 | 0.0 | 0.00 | 0.00 | 0.00 | 89 | 1016.6 |
| 20260906030125 | 58 | 113 | 0.0 | 0.0 | 0.00 | 0.00 | 0.00 | 90 | 1016.6 |
| 20260906025123 | 58 | 113 | 0.0 | 0.0 | 0.00 | 0.00 | 0.00 | 89 | 1016.6 |
| 20260906024124 | 59 | 135 | 0.0 | 0.0 | 0.00 | 0.00 | 0.00 | 89 | 1016.6 |
| 20260906023124 | 59 | 113 | 0.0 | 0.0 | 0.00 | 0.00 | 0.00 | 88 | 1016.7 |
| 20260906022123 | 60 | 113 | 0.0 | 0.0 | 0.00 | 0.00 | 0.00 | 87 | 1016.5 |
| 20260906021125 | 60 | 45 | 0.0 | 2.0 | 0.00 | 0.00 | 0.00 | 87 | 1016.5 |
| 20260906020123 | 61 | 113 | 0.0 | 0.0 | 0.00 | 0.00 | 0.00 | 86 | 1016.5 |
| 20260906015126 | 62 | 135 | 0.0 | 0.0 | 0.00 | 0.00 | 0.00 | 85 | 1016.5 |
| 20260906014123 | 62 | 68 | 0.0 | 0.0 | 0.00 | 0.00 | 0.00 | 84 | 1016.2 |
| 20260906013144 | 63 | 348 | 0.0 | 3.0 | 0.00 | 0.00 | 0.00 | 82 | 1016.2 |
| 20260906012144 | 64 | 90 | 0.0 | 0.0 | 0.00 | 0.00 | 0.00 | 81 | 1015.9 |
| 20260906011123 | 65 | 113 | 0.0 | 0.0 | 0.00 | 0.00 | 0.00 | 79 | 1016.0 |
| 20260906010146 | 66 | 14 | 0.0 | 3.0 | 0.00 | 0.00 | 0.00 | 74 | 1015.8 |
| 20260906005123 | 66 | 225 | 0.0 | 0.0 | 0.00 | 0.00 | 0.00 | 75 | 1015.8 |
| 20260906004125 | 67 | 128 | 0.0 | 3.0 | 0.00 | 0.00 | 0.00 | 71 | 1015.9 |
| 20260906003144 | 67 | 134 | 0.0 | 3.0 | 0.00 | 0.00 | 0.00 | 71 | 1015.9 |
| 20260906002147 | 68 | 185 | 1.0 | 6.0 | 0.00 | 0.00 | 0.00 | 71 | 1016.0 |
| 20260906001132 | 68 | 158 | 1.0 | 4.0 | 0.00 | 0.00 | 0.00 | 69 | 1015.9 |
| 20260906001123 | 68 | 152 | 1.0 | 4.0 | 0.00 | 0.00 | 0.00 | 69 | 1015.9 |
| 20260906000122 | 68 | 202 | 2.0 | 10.0 | 0.00 | 0.00 | 0.00 | 68 | 1015.9 |
| 20260905235126 | 69 | 189 | 2.0 | 7.0 | 0.00 | 0.00 | 0.00 | 67 | 1015.9 |
| 20260905234123 | 69 | 176 | 2.0 | 8.0 | 0.00 | 0.00 | 0.00 | 67 | 1015.9 |
| 20260905233125 | 69 | 188 | 2.0 | 8.0 | 0.00 | 0.00 | 0.00 | 69 | 1015.9 |
| 20260905232124 | 68 | 195 | 3.0 | 8.0 | 0.00 | 0.00 | 0.00 | 68 | 1016.0 |
| 20260905231125 | 70 | 202 | 3.0 | 10.0 | 0.00 | 0.00 | 0.00 | 66 | 1015.9 |
| 20260905230123 | 71 | 177 | 3.0 | 8.0 | 0.00 | 0.00 | 0.00 | 66 | 1016.0 |